WAT2301 EDDN-LEPA

Flight info

Callsign WAT2301
Flight time 2h 7m
Altitude 31000
Route BOLSI1G BOLSI Y166 DKB N869 NATOR DCT LUTIX DCT BENOT DCT NEMOS DCT GEVEA DCT INCUS/N0445F330 DCT BALSI DCT RETNO DCT TUPOX DCT MTG DCT DIVKO DCT VATIR DCT PIVUS DCT BODEQ DCT VERSO L129 LUNIK
Aircraft MD82/M-SDFGIRWY/S

Departure

Time 2026-05-05 15:32
Airport Nuremberg Airport (EDDN)

Arrival

Time 2026-05-05 17:40
Airport Palma de Mallorca Airport (LEPA)
Time Latitude Longitude Altitude Speed Heading
2026-05-05 14:58 49.49516 11.07859 1029 ft 0 kts 188°
2026-05-05 15:17 49.49517 11.07859 1029 ft 0 kts 188°
2026-05-05 15:20 49.49531 11.07862 1027 ft 4 kts 187°
2026-05-05 15:20 49.49557 11.07866 1030 ft 4 kts 184°
2026-05-05 15:20 49.49584 11.07868 1031 ft 4 kts 180°
2026-05-05 15:20 49.49592 11.07868 1031 ft 0 kts 180°
2026-05-05 15:26 49.49578 11.07871 1031 ft 5 kts 165°
2026-05-05 15:26 49.49549 11.07928 1030 ft 9 kts 98°
2026-05-05 15:26 49.49556 11.08053 1030 ft 14 kts 90°
2026-05-05 15:26 49.49542 11.08224 1031 ft 14 kts 99°
2026-05-05 15:27 49.49539 11.08310 1033 ft 7 kts 73°
2026-05-05 15:27 49.49581 11.08359 1041 ft 9 kts 26°
2026-05-05 15:27 49.49613 11.08436 1032 ft 8 kts 89°
2026-05-05 15:27 49.49608 11.08518 1033 ft 7 kts 98°
2026-05-05 15:28 49.49601 11.08592 1034 ft 7 kts 98°
2026-05-05 15:28 49.49592 11.08680 1035 ft 10 kts 99°
2026-05-05 15:28 49.49578 11.08818 1036 ft 17 kts 98°
2026-05-05 15:28 49.49557 11.09032 1038 ft 24 kts 98°
2026-05-05 15:29 49.49534 11.09267 1041 ft 12 kts 98°
2026-05-05 15:29 49.49547 11.09381 1042 ft 10 kts 62°
2026-05-05 15:29 49.49585 11.09471 1043 ft 10 kts 53°
2026-05-05 15:29 49.49630 11.09548 1044 ft 8 kts 33°
2026-05-05 15:30 49.49674 11.09556 1045 ft 6 kts 341°
2026-05-05 15:30 49.49706 11.09480 1044 ft 11 kts 280°
2026-05-05 15:30 49.49709 11.09443 1043 ft 0 kts 277°
2026-05-05 15:31 49.49709 11.09435 1043 ft 3 kts 277°
2026-05-05 15:31 49.49724 11.09299 1043 ft 38 kts 278°
2026-05-05 15:31 49.49785 11.08603 1029 ft 90 kts 277°
2026-05-05 15:32 49.49899 11.07471 1038 ft 126 kts 274°
2026-05-05 15:32 49.49890 11.06062 1081 ft 175 kts 264°
2026-05-05 15:32 49.49929 11.03979 1333 ft 213 kts 265°
2026-05-05 15:32 49.49876 11.01555 1718 ft 239 kts 265°
2026-05-05 15:33 49.49793 10.98998 2697 ft 250 kts 268°
2026-05-05 15:33 49.49610 10.96242 3486 ft 271 kts 259°
2026-05-05 15:33 49.49339 10.93594 5266 ft 218 kts 260°
2026-05-05 15:33 49.49128 10.91353 6123 ft 225 kts 260°
2026-05-05 15:34 49.49085 10.88545 4811 ft 303 kts 280°
2026-05-05 15:34 49.49711 10.85424 4711 ft 289 kts 285°
2026-05-05 15:34 49.50016 10.82529 4853 ft 265 kts 267°
2026-05-05 15:34 49.49829 10.79807 5109 ft 254 kts 258°
2026-05-05 15:35 49.49519 10.77074 5424 ft 265 kts 258°
2026-05-05 15:35 49.49246 10.74249 5767 ft 268 kts 260°
2026-05-05 15:35 49.49058 10.71384 6065 ft 271 kts 264°
2026-05-05 15:35 49.48769 10.68543 6360 ft 270 kts 248°
2026-05-05 15:36 49.47818 10.66077 6630 ft 269 kts 225°
2026-05-05 15:36 49.46488 10.64111 6744 ft 268 kts 222°
2026-05-05 15:36 49.45125 10.62188 6796 ft 266 kts 209°
2026-05-05 15:36 49.43360 10.61640 6822 ft 267 kts 163°
2026-05-05 15:37 49.41800 10.63113 7074 ft 268 kts 139°
2026-05-05 15:37 49.40547 10.65305 6965 ft 278 kts 116°
2026-05-05 15:37 49.40112 10.68199 6994 ft 278 kts 102°
2026-05-05 15:37 49.39502 10.71010 6846 ft 280 kts 126°
2026-05-05 15:38 49.38141 10.72957 6944 ft 264 kts 153°
2026-05-05 15:38 49.36449 10.74119 6899 ft 266 kts 162°
2026-05-05 15:38 49.34681 10.74922 6870 ft 263 kts 169°
2026-05-05 15:38 49.32873 10.75425 6862 ft 264 kts 174°
2026-05-05 15:39 49.31071 10.75708 6859 ft 263 kts 177°
2026-05-05 15:39 49.29231 10.75868 6857 ft 264 kts 179°
2026-05-05 15:39 49.27396 10.75935 6860 ft 263 kts 182°
2026-05-05 15:39 49.25603 10.75474 6852 ft 263 kts 208°
2026-05-05 15:40 49.24562 10.73298 6909 ft 267 kts 259°
2026-05-05 15:40 49.24172 10.70696 7805 ft 244 kts 240°
2026-05-05 15:40 49.23131 10.68417 7380 ft 276 kts 229°
2026-05-05 15:40 49.22055 10.66045 7149 ft 272 kts 243°
2026-05-05 15:41 49.21529 10.63303 7085 ft 262 kts 252°
2026-05-05 15:41 49.20916 10.60690 6921 ft 262 kts 244°
2026-05-05 15:41 49.20298 10.58072 6912 ft 257 kts 249°
2026-05-05 15:41 49.19719 10.55525 7427 ft 254 kts 251°
2026-05-05 15:42 49.19532 10.52795 7943 ft 270 kts 285°
2026-05-05 15:42 49.20735 10.50572 8419 ft 280 kts 316°
2026-05-05 15:42 49.21907 10.48255 8932 ft 277 kts 277°
2026-05-05 15:42 49.21706 10.45494 9788 ft 254 kts 244°
2026-05-05 15:43 49.20869 10.43113 10363 ft 255 kts 230°
2026-05-05 15:43 49.19669 10.41113 10854 ft 257 kts 223°
2026-05-05 15:43 49.18463 10.39057 11347 ft 262 kts 231°
2026-05-05 15:43 49.17454 10.36708 11853 ft 267 kts 238°
2026-05-05 15:44 49.16614 10.34184 12357 ft 272 kts 243°
2026-05-05 15:44 49.15882 10.31501 12856 ft 275 kts 246°
2026-05-05 15:44 49.15236 10.28744 13398 ft 276 kts 249°
2026-05-05 15:44 49.14652 10.25941 13904 ft 277 kts 250°
2026-05-05 15:45 49.13885 10.23265 14387 ft 274 kts 235°
2026-05-05 15:45 49.12814 10.20871 14867 ft 273 kts 231°
2026-05-05 15:45 49.11684 10.18534 15365 ft 273 kts 231°
2026-05-05 15:45 49.10552 10.16222 15864 ft 272 kts 231°
2026-05-05 15:46 49.09410 10.13928 16369 ft 270 kts 230°
2026-05-05 15:46 49.08261 10.11632 16771 ft 273 kts 230°
2026-05-05 15:46 49.07093 10.09316 17161 ft 276 kts 231°
2026-05-05 15:46 49.05977 10.07088 17545 ft 278 kts 231°
2026-05-05 15:47 49.04794 10.04704 17953 ft 280 kts 231°
2026-05-05 15:47 49.04010 10.03117 18156 ft 284 kts 232°
2026-05-05 15:47 49.02394 9.99841 18258 ft 300 kts 232°
2026-05-05 15:47 49.01106 9.97222 18368 ft 310 kts 232°
2026-05-05 15:48 48.99809 9.94578 18472 ft 320 kts 232°
2026-05-05 15:48 48.98456 9.91817 18568 ft 330 kts 232°
2026-05-05 15:48 48.97061 9.88977 18670 ft 340 kts 232°
2026-05-05 15:48 48.95620 9.86049 18775 ft 350 kts 232°
2026-05-05 15:49 48.94131 9.83031 18864 ft 361 kts 232°
2026-05-05 15:49 48.92594 9.79920 18956 ft 373 kts 232°
2026-05-05 15:49 48.91014 9.76728 19105 ft 382 kts 232°
2026-05-05 15:49 48.89409 9.73483 19459 ft 384 kts 232°
2026-05-05 15:50 48.87800 9.70242 19917 ft 384 kts 231°
2026-05-05 15:50 48.86197 9.67042 20330 ft 386 kts 231°
2026-05-05 15:50 48.84555 9.63778 20709 ft 389 kts 231°
2026-05-05 15:50 48.82907 9.60503 21140 ft 391 kts 231°
2026-05-05 15:51 48.81248 9.57208 21553 ft 394 kts 231°
2026-05-05 15:51 48.79576 9.53888 21960 ft 398 kts 230°
2026-05-05 15:51 48.77889 9.50540 22413 ft 401 kts 230°
2026-05-05 15:51 48.76191 9.47158 22760 ft 404 kts 230°
2026-05-05 15:52 48.74476 9.43748 23147 ft 406 kts 230°
2026-05-05 15:52 48.73339 9.41490 23397 ft 408 kts 230°
2026-05-05 15:52 48.71047 9.36945 23814 ft 410 kts 230°
2026-05-05 15:52 48.69312 9.33511 24136 ft 412 kts 230°
2026-05-05 15:53 48.67564 9.30059 24487 ft 413 kts 230°
2026-05-05 15:53 48.66400 9.27755 24705 ft 413 kts 230°
2026-05-05 15:53 48.64651 9.24292 25013 ft 416 kts 230°
2026-05-05 15:53 48.62888 9.20807 25320 ft 418 kts 230°
2026-05-05 15:54 48.61109 9.17320 25628 ft 419 kts 230°
2026-05-05 15:54 48.59319 9.13832 25955 ft 421 kts 230°
2026-05-05 15:54 48.57522 9.10343 26276 ft 423 kts 230°
2026-05-05 15:54 48.55734 9.06867 26592 ft 424 kts 230°
2026-05-05 15:55 48.53926 9.03332 26885 ft 426 kts 231°
2026-05-05 15:55 48.52158 8.99777 27174 ft 429 kts 231°
2026-05-05 15:55 48.50351 8.96185 27484 ft 430 kts 230°
2026-05-05 15:55 48.48503 8.92617 27758 ft 433 kts 230°
2026-05-05 15:56 48.46634 8.89053 27985 ft 436 kts 229°
2026-05-05 15:56 48.44760 8.85473 28398 ft 434 kts 229°
2026-05-05 15:56 48.42916 8.81922 29121 ft 426 kts 230°
2026-05-05 15:56 48.41103 8.78405 29527 ft 425 kts 230°
2026-05-05 15:57 48.39278 8.74860 29715 ft 429 kts 230°
2026-05-05 15:57 48.37465 8.71354 29969 ft 430 kts 229°
2026-05-05 15:57 48.35618 8.67821 30294 ft 429 kts 232°
2026-05-05 15:57 48.33838 8.64208 30582 ft 428 kts 228°
2026-05-05 15:58 48.31915 8.60789 30723 ft 429 kts 230°
2026-05-05 15:58 48.30581 8.56788 30804 ft 433 kts 254°
2026-05-05 15:58 48.29413 8.52717 30806 ft 428 kts 227°
2026-05-05 15:58 48.27236 8.49705 30983 ft 415 kts 215°
2026-05-05 15:59 48.25000 8.47094 31641 ft 407 kts 217°
2026-05-05 15:59 48.22724 8.44417 30411 ft 438 kts 216°
2026-05-05 15:59 48.20360 8.41620 30573 ft 414 kts 217°
2026-05-05 15:59 48.18170 8.38981 31185 ft 404 kts 218°
2026-05-05 16:00 48.16080 8.35927 30153 ft 435 kts 229°
2026-05-05 16:00 48.14421 8.32234 30867 ft 408 kts 239°
2026-05-05 16:00 48.12980 8.28649 31180 ft 408 kts 230°
2026-05-05 16:00 48.10856 8.25769 31004 ft 411 kts 213°
2026-05-05 16:01 48.08468 8.23437 30923 ft 418 kts 210°
2026-05-05 16:01 48.03404 8.19059 30859 ft 421 kts 209°
2026-05-05 16:02 47.98553 8.14222 30850 ft 419 kts 220°
2026-05-05 16:02 47.96180 8.11709 30842 ft 416 kts 207°
2026-05-05 16:02 47.93582 8.09798 30847 ft 417 kts 205°
2026-05-05 16:03 47.88610 8.05347 30839 ft 418 kts 214°
2026-05-05 16:03 47.84205 7.99851 30831 ft 421 kts 242°
2026-05-05 16:03 47.83812 7.95526 30491 ft 434 kts 268°
2026-05-05 16:04 47.83216 7.91333 31079 ft 412 kts 237°
2026-05-05 16:04 47.81269 7.88243 30920 ft 412 kts 209°
2026-05-05 16:04 47.78661 7.86639 31448 ft 405 kts 193°
2026-05-05 16:04 47.75805 7.86115 30841 ft 425 kts 178°
2026-05-05 16:05 47.72889 7.86138 31210 ft 412 kts 188°
2026-05-05 16:05 47.70191 7.84854 30389 ft 426 kts 213°
2026-05-05 16:05 47.67884 7.82148 30736 ft 400 kts 223°
2026-05-05 16:05 47.66001 7.79451 32506 ft 363 kts 222°
2026-05-05 16:06 47.64089 7.76893 31748 ft 386 kts 218°
2026-05-05 16:06 47.61813 7.74342 30529 ft 423 kts 213°
2026-05-05 16:06 47.59433 7.72085 31573 ft 391 kts 210°
2026-05-05 16:07 47.54560 7.67922 30479 ft 427 kts 208°
2026-05-05 16:07 47.52047 7.65918 31323 ft 395 kts 208°
2026-05-05 16:07 47.49601 7.63976 30956 ft 410 kts 208°
2026-05-05 16:07 47.47024 7.61905 30347 ft 420 kts 209°
2026-05-05 16:08 47.44563 7.59907 30814 ft 405 kts 209°
2026-05-05 16:08 47.39636 7.55771 30848 ft 410 kts 210°
2026-05-05 16:09 47.34613 7.51672 30855 ft 413 kts 208°
2026-05-05 16:09 47.29567 7.47670 30884 ft 409 kts 209°
2026-05-05 16:10 47.24924 7.42983 30992 ft 400 kts 220°
2026-05-05 16:10 47.22521 7.40921 30978 ft 406 kts 204°
2026-05-05 16:10 47.19873 7.39403 31000 ft 412 kts 201°
2026-05-05 16:11 47.14793 7.35540 30914 ft 411 kts 221°
2026-05-05 16:12 47.06944 7.23736 30886 ft 403 kts 231°
2026-05-05 16:13 46.96684 7.09599 30873 ft 407 kts 222°
2026-05-05 16:13 46.92523 7.04035 30883 ft 402 kts 223°
2026-05-05 16:14 46.88926 6.97926 30979 ft 394 kts 237°
2026-05-05 16:14 46.84533 6.93273 31106 ft 394 kts 209°
2026-05-05 16:15 46.80379 6.88046 30723 ft 411 kts 227°
2026-05-05 16:15 46.76577 6.82098 30744 ft 410 kts 225°
2026-05-05 16:16 46.72561 6.76503 30814 ft 398 kts 224°
2026-05-05 16:16 46.68614 6.71021 30860 ft 394 kts 222°
2026-05-05 16:17 46.62483 6.62954 30890 ft 398 kts 223°
2026-05-05 16:18 46.56470 6.54607 30887 ft 398 kts 224°
2026-05-05 16:19 46.50312 6.46561 30881 ft 396 kts 222°
2026-05-05 16:19 46.44250 6.38385 30905 ft 401 kts 218°
2026-05-05 16:20 46.36056 6.27360 30877 ft 398 kts 227°
2026-05-05 16:21 46.32150 6.21881 30914 ft 392 kts 214°
2026-05-05 16:22 46.25805 6.14280 30889 ft 397 kts 215°
2026-05-05 16:22 46.20583 6.11618 30891 ft 404 kts 194°
2026-05-05 16:23 46.15083 6.10228 30883 ft 402 kts 192°
2026-05-05 16:23 46.06859 6.08202 30892 ft 399 kts 194°
2026-05-05 16:24 46.01393 6.06679 30886 ft 400 kts 194°
2026-05-05 16:25 45.93520 6.03392 31158 ft 386 kts 207°
2026-05-05 16:25 45.88218 6.01691 30981 ft 413 kts 173°
2026-05-05 16:25 45.85496 6.02894 31445 ft 409 kts 165°
2026-05-05 16:26 45.80082 6.05925 31091 ft 412 kts 165°
2026-05-05 16:26 45.74683 6.09015 30933 ft 419 kts 164°
2026-05-05 16:27 45.69329 6.12263 30918 ft 423 kts 162°
2026-05-05 16:27 45.63874 6.15511 30899 ft 421 kts 164°
2026-05-05 16:28 45.58481 6.18630 30893 ft 420 kts 165°
2026-05-05 16:28 45.53059 6.21704 30899 ft 419 kts 164°
2026-05-05 16:29 45.47661 6.24872 30868 ft 417 kts 166°
2026-05-05 16:29 45.44951 6.26214 30837 ft 404 kts 178°
2026-05-05 16:29 45.42212 6.26328 30866 ft 388 kts 196°
2026-05-05 16:30 45.39694 6.25146 30860 ft 378 kts 213°
2026-05-05 16:30 45.37635 6.22926 30884 ft 369 kts 225°
2026-05-05 16:30 45.33585 6.18515 30885 ft 374 kts 213°
2026-05-05 16:31 45.28856 6.15148 30879 ft 384 kts 208°
2026-05-05 16:31 45.23925 6.12125 30884 ft 387 kts 206°
2026-05-05 16:32 45.19003 6.09213 30877 ft 376 kts 211°
2026-05-05 16:32 45.14184 6.06445 30891 ft 373 kts 204°
2026-05-05 16:33 45.09356 6.03767 30895 ft 373 kts 208°
2026-05-05 16:33 45.04946 6.00979 30851 ft 374 kts 208°
2026-05-05 16:34 45.00133 5.98115 30885 ft 375 kts 206°
2026-05-05 16:34 44.95286 5.95486 30867 ft 369 kts 207°
2026-05-05 16:35 44.90605 5.92727 30861 ft 365 kts 208°
2026-05-05 16:35 44.85899 5.89903 30887 ft 373 kts 208°
2026-05-05 16:36 44.81056 5.87060 30897 ft 377 kts 206°
2026-05-05 16:36 44.76253 5.84269 30878 ft 374 kts 206°
2026-05-05 16:37 44.71406 5.81519 30896 ft 375 kts 206°
2026-05-05 16:37 44.66559 5.78692 30910 ft 378 kts 206°
2026-05-05 16:38 44.61700 5.75883 30902 ft 376 kts 206°
2026-05-05 16:38 44.57681 5.73584 30900 ft 374 kts 206°
2026-05-05 16:39 44.52891 5.70774 30937 ft 373 kts 206°
2026-05-05 16:39 44.47248 5.67638 30909 ft 376 kts 206°
2026-05-05 16:40 44.43189 5.65304 30904 ft 375 kts 206°
2026-05-05 16:40 44.38360 5.62533 30898 ft 375 kts 206°
2026-05-05 16:41 44.33532 5.59846 30897 ft 376 kts 205°
2026-05-05 16:41 44.28641 5.57210 30899 ft 377 kts 205°
2026-05-05 16:42 44.23756 5.54561 30897 ft 377 kts 205°
2026-05-05 16:42 44.18888 5.51897 30897 ft 374 kts 206°
2026-05-05 16:43 44.14051 5.49248 30903 ft 374 kts 206°
2026-05-05 16:43 44.09191 5.46591 30880 ft 376 kts 205°
2026-05-05 16:44 44.04319 5.43933 30897 ft 376 kts 205°
2026-05-05 16:44 43.99481 5.41302 30899 ft 376 kts 205°
2026-05-05 16:45 43.94564 5.38647 30901 ft 378 kts 205°
2026-05-05 16:45 43.89692 5.36020 30887 ft 378 kts 205°
2026-05-05 16:46 43.84811 5.33392 30903 ft 374 kts 205°
2026-05-05 16:46 43.79971 5.30776 30915 ft 373 kts 206°
2026-05-05 16:47 43.75120 5.28160 30914 ft 374 kts 205°
2026-05-05 16:47 43.70261 5.25546 30892 ft 374 kts 205°
2026-05-05 16:48 43.65399 5.22942 30914 ft 375 kts 205°
2026-05-05 16:48 43.60530 5.20326 30914 ft 375 kts 205°
2026-05-05 16:49 43.55677 5.17732 30915 ft 373 kts 205°
2026-05-05 16:49 43.50837 5.15145 30903 ft 373 kts 205°
2026-05-05 16:50 43.46021 5.12589 30915 ft 373 kts 205°
2026-05-05 16:50 43.41183 5.10013 30914 ft 372 kts 205°
2026-05-05 16:51 43.36540 5.07162 30919 ft 368 kts 213°
2026-05-05 16:51 43.32159 5.03524 30915 ft 367 kts 214°
2026-05-05 16:52 43.27826 4.99875 30904 ft 362 kts 214°
2026-05-05 16:52 43.23545 4.96325 30908 ft 361 kts 214°
2026-05-05 16:53 43.19202 4.92772 30924 ft 368 kts 213°
2026-05-05 16:53 43.14756 4.89170 30908 ft 371 kts 213°
2026-05-05 16:54 43.10324 4.85597 30893 ft 367 kts 213°
2026-05-05 16:54 43.05968 4.82083 30897 ft 361 kts 214°
2026-05-05 16:55 43.01645 4.78586 30903 ft 362 kts 214°
2026-05-05 16:55 42.97315 4.75104 30900 ft 364 kts 213°
2026-05-05 16:56 42.92931 4.71585 30898 ft 365 kts 213°
2026-05-05 16:56 42.88572 4.68091 30894 ft 361 kts 214°
2026-05-05 16:57 42.84260 4.64630 30895 ft 359 kts 214°
2026-05-05 16:57 42.79943 4.61164 30897 ft 361 kts 214°
2026-05-05 16:58 42.75607 4.57691 30896 ft 362 kts 213°
2026-05-05 16:58 42.71271 4.54222 30904 ft 366 kts 213°
2026-05-05 16:59 42.66864 4.50706 30898 ft 367 kts 213°
2026-05-05 16:59 42.62445 4.47201 30897 ft 368 kts 213°
2026-05-05 17:00 42.58024 4.43708 30892 ft 366 kts 213°
2026-05-05 17:00 42.53632 4.40227 30890 ft 365 kts 213°
2026-05-05 17:01 42.49261 4.36768 30881 ft 362 kts 214°
2026-05-05 17:01 42.44929 4.33339 30891 ft 360 kts 214°
2026-05-05 17:02 42.40598 4.29911 30895 ft 361 kts 214°
2026-05-05 17:02 42.36252 4.26477 30881 ft 363 kts 213°
2026-05-05 17:03 42.31903 4.23054 30855 ft 360 kts 213°
2026-05-05 17:03 42.27594 4.19662 30886 ft 358 kts 214°
2026-05-05 17:04 42.23257 4.16238 30898 ft 363 kts 214°
2026-05-05 17:04 42.18914 4.12825 30887 ft 364 kts 214°
2026-05-05 17:05 42.14507 4.09469 30889 ft 363 kts 212°
2026-05-05 17:05 42.10056 4.06283 30873 ft 361 kts 212°
2026-05-05 17:06 42.05632 4.03094 30887 ft 361 kts 212°
2026-05-05 17:06 42.01211 3.99861 30881 ft 362 kts 212°
2026-05-05 17:07 41.96785 3.96609 30889 ft 362 kts 213°
2026-05-05 17:07 41.92357 3.93459 30876 ft 366 kts 205°
2026-05-05 17:08 41.87295 3.92034 30870 ft 374 kts 196°
2026-05-05 17:08 41.82147 3.90980 30877 ft 374 kts 196°
2026-05-05 17:09 41.77006 3.89885 30880 ft 374 kts 197°
2026-05-05 17:09 41.71872 3.88714 30880 ft 374 kts 197°
2026-05-05 17:10 41.66744 3.87513 30874 ft 374 kts 197°
2026-05-05 17:10 41.61653 3.86319 30879 ft 374 kts 197°
2026-05-05 17:11 41.56521 3.85124 30881 ft 374 kts 197°
2026-05-05 17:11 41.51382 3.83937 30885 ft 375 kts 197°
2026-05-05 17:12 41.46229 3.82752 30876 ft 376 kts 197°
2026-05-05 17:12 41.41055 3.81563 30885 ft 378 kts 197°
2026-05-05 17:13 41.35864 3.80376 30903 ft 378 kts 197°
2026-05-05 17:13 41.30692 3.79200 30890 ft 375 kts 197°
2026-05-05 17:14 41.25586 3.78037 30875 ft 375 kts 197°
2026-05-05 17:14 41.20414 3.76853 30875 ft 378 kts 197°
2026-05-05 17:15 41.15232 3.75635 30882 ft 376 kts 201°
2026-05-05 17:15 41.10371 3.73318 30875 ft 369 kts 208°
2026-05-05 17:16 41.05633 3.70746 30861 ft 368 kts 208°
2026-05-05 17:16 41.00856 3.68198 30875 ft 371 kts 207°
2026-05-05 17:17 40.96067 3.65716 30879 ft 372 kts 207°
2026-05-05 17:17 40.91226 3.63244 30883 ft 373 kts 207°
2026-05-05 17:18 40.86392 3.60783 30882 ft 371 kts 207°
2026-05-05 17:18 40.81572 3.58324 30876 ft 372 kts 207°
2026-05-05 17:19 40.76726 3.55850 30882 ft 374 kts 206°
2026-05-05 17:19 40.71856 3.53371 30883 ft 375 kts 206°
2026-05-05 17:20 40.67015 3.50914 30883 ft 374 kts 207°
2026-05-05 17:20 40.62175 3.48458 30885 ft 372 kts 207°
2026-05-05 17:21 40.57331 3.45999 30871 ft 373 kts 206°
2026-05-05 17:21 40.54878 3.44750 30397 ft 384 kts 206°
2026-05-05 17:22 40.49722 3.42974 29436 ft 386 kts 197°
2026-05-05 17:22 40.47279 3.41831 28764 ft 365 kts 220°
2026-05-05 17:22 40.45255 3.39944 28837 ft 355 kts 216°
2026-05-05 17:22 40.42933 3.38531 27521 ft 386 kts 199°
2026-05-05 17:23 40.40230 3.38357 27250 ft 390 kts 181°
2026-05-05 17:23 40.37559 3.38879 26478 ft 391 kts 180°
2026-05-05 17:23 40.34878 3.39345 25841 ft 386 kts 182°
2026-05-05 17:23 40.32199 3.39708 25027 ft 387 kts 183°
2026-05-05 17:24 40.29512 3.40030 24240 ft 388 kts 183°
2026-05-05 17:24 40.27725 3.40220 23721 ft 389 kts 184°
2026-05-05 17:24 40.25020 3.40478 22858 ft 390 kts 184°
2026-05-05 17:24 40.22321 3.40653 22054 ft 387 kts 185°
2026-05-05 17:25 40.19636 3.40768 21286 ft 384 kts 185°
2026-05-05 17:25 40.17867 3.40833 20836 ft 382 kts 185°
2026-05-05 17:25 40.14330 3.40962 19936 ft 379 kts 185°
2026-05-05 17:25 40.11707 3.41092 19361 ft 374 kts 184°
2026-05-05 17:26 40.09241 3.41234 19267 ft 356 kts 184°
2026-05-05 17:26 40.06826 3.41383 19188 ft 336 kts 184°
2026-05-05 17:26 40.04580 3.41635 19104 ft 311 kts 182°
2026-05-05 17:26 40.02538 3.41774 19025 ft 288 kts 187°
2026-05-05 17:27 40.00555 3.41651 18625 ft 286 kts 192°
2026-05-05 17:27 39.98494 3.41642 18244 ft 306 kts 182°
2026-05-05 17:27 39.96354 3.41930 17748 ft 310 kts 181°
2026-05-05 17:27 39.94214 3.42084 17267 ft 303 kts 191°
2026-05-05 17:28 39.92141 3.41836 16829 ft 302 kts 183°
2026-05-05 17:28 39.90045 3.42216 16393 ft 305 kts 176°
2026-05-05 17:28 39.87959 3.42610 15941 ft 299 kts 181°
2026-05-05 17:28 39.85898 3.42759 15504 ft 294 kts 185°
2026-05-05 17:29 39.83865 3.42806 15059 ft 291 kts 186°
2026-05-05 17:29 39.81903 3.42469 14621 ft 279 kts 207°
2026-05-05 17:29 39.80546 3.40845 14367 ft 264 kts 234°
2026-05-05 17:29 39.79298 3.39133 14244 ft 272 kts 219°
2026-05-05 17:30 39.77802 3.37584 14152 ft 271 kts 226°
2026-05-05 17:30 39.76759 3.35590 14106 ft 272 kts 237°
2026-05-05 17:30 39.75300 3.33987 13708 ft 280 kts 210°
2026-05-05 17:30 39.73440 3.33474 13857 ft 290 kts 177°
2026-05-05 17:31 39.71442 3.33940 14101 ft 285 kts 179°
2026-05-05 17:31 39.69436 3.33989 13868 ft 294 kts 195°
2026-05-05 17:31 39.67560 3.33098 13415 ft 284 kts 216°
2026-05-05 17:31 39.66196 3.31328 12893 ft 277 kts 243°
2026-05-05 17:32 39.66161 3.28913 12372 ft 284 kts 289°
2026-05-05 17:32 39.66734 3.26545 12160 ft 274 kts 274°
2026-05-05 17:32 39.66921 3.24047 11739 ft 269 kts 265°
2026-05-05 17:32 39.66848 3.21643 11757 ft 273 kts 265°
2026-05-05 17:33 39.66860 3.19158 11230 ft 279 kts 269°
2026-05-05 17:33 39.66995 3.16630 10606 ft 282 kts 271°
2026-05-05 17:33 39.67168 3.14079 10011 ft 284 kts 272°
2026-05-05 17:33 39.67344 3.11508 9381 ft 286 kts 272°
2026-05-05 17:34 39.67518 3.08931 8725 ft 285 kts 272°
2026-05-05 17:34 39.67685 3.06401 8085 ft 278 kts 272°
2026-05-05 17:34 39.67840 3.03950 7462 ft 273 kts 272°
2026-05-05 17:34 39.67976 3.01483 6850 ft 268 kts 272°
2026-05-05 17:35 39.68093 2.99100 6131 ft 269 kts 272°
2026-05-05 17:35 39.68202 2.96676 5365 ft 268 kts 272°
2026-05-05 17:35 39.68297 2.94260 4614 ft 268 kts 272°
2026-05-05 17:35 39.68455 2.91854 3863 ft 267 kts 275°
2026-05-05 17:36 39.68539 2.89473 3385 ft 258 kts 270°
2026-05-05 17:36 39.68484 2.87214 3178 ft 242 kts 265°
2026-05-05 17:36 39.68163 2.85132 3032 ft 234 kts 246°
2026-05-05 17:36 39.67108 2.83515 2586 ft 239 kts 213°
2026-05-05 17:37 39.65586 2.82777 2353 ft 229 kts 193°
2026-05-05 17:37 39.64032 2.82581 2044 ft 224 kts 179°
2026-05-05 17:37 39.62492 2.83091 1462 ft 232 kts 161°
2026-05-05 17:37 39.61029 2.83508 1481 ft 200 kts 193°
2026-05-05 17:38 39.59814 2.82809 1250 ft 197 kts 217°
2026-05-05 17:38 39.58744 2.81704 1079 ft 193 kts 224°
2026-05-05 17:38 39.57867 2.80420 1007 ft 188 kts 232°
2026-05-05 17:38 39.57098 2.79086 666 ft 184 kts 232°
2026-05-05 17:39 39.56377 2.77818 527 ft 166 kts 235°
2026-05-05 17:39 39.55760 2.76613 174 ft 154 kts 237°
2026-05-05 17:39 39.55231 2.75511 29 ft 133 kts 237°
2026-05-05 17:39 39.54794 2.74593 32 ft 96 kts 238°
2026-05-05 17:40 39.54632 2.74252 35 ft 34 kts 238°
2026-05-05 17:40 39.54511 2.73999 35 ft 32 kts 238°
2026-05-05 17:40 39.54394 2.73752 35 ft 32 kts 238°
2026-05-05 17:40 39.54299 2.73551 35 ft 19 kts 238°
2026-05-05 17:41 39.54231 2.73407 38 ft 18 kts 239°
2026-05-05 17:41 39.54183 2.73304 39 ft 0 kts 238°
2026-05-05 17:41 39.54178 2.73292 39 ft 6 kts 239°